Location: Belrieth
(50.5287°N, 10.4962°E)
Time: 22:39:12
(UTC+00:00)

Daily predictions for brighter satellites

Satellite Brightness Start Highest point End
(mag) Time Altitude Azimuth Time Altitude Azimuth Time Altitude Azimuth
Cosmos 2016 Rocket 4.0 16:51:44 10° N 16:58:00 72° ENE 17:04:17 10° SSE
SPOT 1/Viking Rocket 3.5 16:54:20 10° SSE 16:59:24 66° ENE 17:04:30 10° N
Cosmos 1980 4.1 16:56:07 10° NNW 17:01:31 43° NE 17:06:52 10° ESE
Cosmos 2242 Rocket 3.5 16:57:41 10° S 17:02:02 80° E 17:06:27 10° NNE
COSMOS 2428 2.7 16:56:46 10° NNW 17:02:32 80° ENE 17:08:16 10° SSE
Cosmos 1674 Rocket 3.9 17:01:50 10° SSE 17:06:01 45° E 17:10:15 10° NNE
SMAP 4.2 17:01:30 10° S 17:06:01 50° W 17:10:35 10° NNW
Cosmos 1802 Rocket 4.2 17:00:16 10° N 17:06:43 87° W 17:13:09 10° S
Cosmos 2237 Rocket 2.6 17:01:30 10° NNW 17:06:55 43° NE 17:12:20 10° ESE
Lacrosse 5 rocket 1.1 17:04:05 10° WSW 17:07:32 69° NNW 17:11:07 10° NE
IRS-P3 4.1 17:02:35 10° SSE 17:07:53 77° ENE 17:13:14 10° NNW
Cosmos 2285 Rocket 4.2 17:02:15 10° NNW 17:08:34 52° ENE 17:14:47 10° SE
Cosmos 2233 Rocket 4.0 17:06:38 10° N 17:12:55 70° ENE 17:19:12 10° SSE
Cosmos 2219 Rocket 4.1 17:08:17 10° NW 17:13:17 34° WSW 17:18:15 10° S
SJ-6B 4.1 17:14:42 10° ESE 17:16:57 17° ENE 17:19:12 10° NNE
CARTOSAT-1 4.0 17:15:10 10° SE 17:19:02 37° ENE 17:22:54 10° N
Cosmos 1867 3.7 17:13:49 10° SW 17:19:15 81° NW 17:24:45 10° NE
USA 267 3.3 17:13:14 10° ENE 17:19:49 86° NNW 17:26:23 10° WSW
Cosmos 1725 Rocket 4.3 17:14:08 10° NNW 17:20:23 77° W 17:26:38 10° S
Aureole 3 Rocket 3.2 17:17:55 10° N 17:21:50 37° ENE 17:24:58 10° SE
NOSS 0 Rocket 4.0 17:17:16 10° NNW 17:23:34 87° NE 17:29:49 10° SSE
SJ-7 4.4 17:20:50 10° SE 17:24:21 44° ENE 17:27:53 10° N
Cosmos 2322 4.2 17:19:17 10° NNW 17:24:58 67° WSW 17:30:37 10° SSE
Cosmos 2151 Rocket 3.8 17:26:12 10° NNW 17:30:43 80° W 17:35:12 10° S
SL-16 R/B 3.3 17:26:58 10° NNW 17:31:40 26° NE 17:35:24 14° E
Meteor 1-31 Rocket 4.4 17:32:45 13° ENE 17:32:45 13° ENE 17:34:19 10° NNE
Cosmos 1814 Rocket 4.2 17:27:49 10° SSW 17:33:06 78° WNW 17:38:22 10° NNE
Cosmos 2227 Rocket 3.5 17:30:12 10° SE 17:34:01 19° E 17:36:55 13° ENE
SAR-Lupe-1 4.4 17:31:57 10° S 17:35:31 70° WSW 17:39:05 10° NNW
Cosmos 1315 Rocket 3.8 17:34:13 10° NNW 17:37:54 49° W 17:41:34 10° S
SL-19 R/B 4.5 17:31:55 10° SSE 17:37:59 63° ENE 17:43:47 10° N
Cosmos 2061 Rocket 4.1 17:31:44 10° N 17:38:11 89° E 17:44:29 10° S
ATLAS 5 CENTAUR R/B 4.1 17:34:29 10° WNW 17:38:11 26° WSW 17:42:32 10° S
Cosmos 1125 Rocket 3.5 17:33:02 10° NNW 17:38:15 87° ENE 17:43:28 10° SSE
Cosmos 1607 3.9 17:32:24 10° SW 17:38:33 90° NW 17:44:48 10° NE
SL-16 R/B 4.2 17:35:59 10° N 17:41:26 34° WNW 17:46:54 10° WSW
Cosmos 1455 Rocket 3.2 17:38:31 10° N 17:42:41 47° ENE 17:46:50 10° SSE
ARIANE 6 FM1 Upper Stage 3.9 17:39:37 10° NNW 17:42:55 24° NNE 17:44:44 18° ENE
CZ-4C R/B 1.8 17:40:06 10° SW 17:44:24 90° SE 17:50:00 10° NE
NOSS 3-3 (C) 3.7 17:39:43 10° SSW 17:44:56 70° SE 17:51:12 10° NE
Cosmos 1975 Rocket 4.0 17:41:47 10° SE 17:45:17 24° E 17:48:47 10° NE
BREEZE-M DEB (TANK) 3.7 17:41:21 10° WNW 17:45:32 59° SSW 17:52:38 10° SE
DNEPR-1 R/B 4.3 17:41:05 10° NNW 17:45:37 46° NE 17:49:52 15° ESE
USA 306 4.0 17:43:42 10° W 17:45:43 18° SW 17:47:15 10° S
YAOGAN 1 2.7 17:42:26 10° S 17:46:42 77° WSW 17:50:58 10° NNW
Cosmos 158 Rocket 4.3 17:43:09 10° SW 17:47:57 62° WNW 17:52:48 10° NNE
YAOGAN 3 4.5 17:44:05 10° SSE 17:48:12 58° ENE 17:52:21 10° N
SeaSat 1 3.7 17:43:56 10° S 17:48:35 43° WSW 17:53:16 10° NW
Cosmos 1464 Rocket 4.3 17:45:15 10° N 17:51:20 44° ENE 17:57:20 10° SE
NOAA 6 4.0 17:49:24 10° SSE 17:54:33 81° ENE 17:59:45 10° NNW
Spot 4 Rocket 4.1 17:50:02 10° SSE 17:55:09 83° WSW 18:00:18 10° NNW
COSMO-SKYMED 1 2.3 17:51:36 10° NNE 17:55:44 76° ESE 17:59:50 10° S
Cosmos 2228 3.4 17:52:21 10° N 17:56:16 37° ENE 18:00:11 10° SE
CZ-4 R/B 3.0 17:58:02 16° NE 17:58:02 16° NE 17:59:34 10° NNE
Okean 1 Rocket 3.5 17:52:35 10° NNW 17:56:58 66° W 18:01:16 10° S
PSLV R/B 3.4 17:53:09 10° SSE 17:57:16 89° E 18:01:24 10° NNW
CZ-4B R/B 4.4 17:58:27 20° ENE 17:59:11 20° NE 18:02:57 10° N
Okean 2 Rocket 3.9 17:54:58 10° NNW 17:59:16 54° W 18:03:31 10° S
Cosmos 2221 Rocket 3.6 17:55:43 10° S 18:00:11 85° W 18:04:44 10° N
SPOT 5 3.6 18:00:21 21° ESE 18:02:46 32° ENE 18:07:15 10° N
Cosmos 773 Rocket 4.3 17:58:45 10° S 18:03:42 44° ESE 18:08:42 10° NE
BREEZE-M (TANK) 3.4 18:04:48 10° W 18:07:21 44° SSW 18:12:02 15° SE
Radarsat Rocket 4.3 18:02:27 10° S 18:08:17 71° WSW 18:14:37 10° NNW
CZ-2D R/B 4.4 18:06:47 10° S 18:10:34 48° W 18:14:28 10° NNW
RESURS DK-1 4.4 18:10:01 10° N 18:11:22 13° NNE 18:11:22 13° NNE
NOSS 3-3 (A) 3.9 18:07:18 10° SW 18:12:36 75° NW 18:18:18 13° NE
CSL-04 Rocket 3.9 18:11:32 19° SE 18:14:54 43° ENE 18:19:52 10° N
IRAS Rocket 4.2 18:11:14 10° SSE 18:16:50 81° ENE 18:22:30 10° NNW
Cosmos 2297 Rocket 2.1 18:12:30 10° SSW 18:18:09 82° ESE 18:23:51 10° NNE
Tiangong 0.4 18:17:40 10° SSW 18:18:49 12° S 18:18:49 12° S
Cosmos 1025 Rocket 4.3 18:16:19 10° SW 18:20:25 43° WNW 18:24:34 10° N
Cosmos 1943 4.3 18:16:09 10° NNW 18:20:48 25° NE 18:21:38 24° NE
Cosmos 836 Rocket 4.4 18:15:52 10° SSW 18:21:06 71° ESE 18:26:23 10° NNE
Orbus 7S? 4.2 18:13:34 10° WNW 18:22:37 86° SW 18:24:45 31° SE
Resurs 01 Rocket 1.8 18:18:26 10° S 18:22:49 71° WSW 18:27:15 10° NNW
Cosmos 2150 Rocket 3.8 18:17:42 10° NNW 18:22:54 77° ENE 18:27:13 15° SSE
Cosmos 2298 Rocket 3.9 18:19:57 10° NNW 18:25:16 77° ENE 18:29:31 16° SSE
NOSS 3-4 (A) 3.9 18:24:00 10° NW 18:30:40 79° SW 18:37:51 13° SE
Cosmos 2344 3.9 18:23:35 10° S 18:30:42 38° ESE 18:32:55 31° E
NOSS 3-4 (C) 3.9 18:24:15 10° NW 18:30:57 80° SW 18:38:02 13° SE
Cosmos 1782 2.6 18:28:27 10° N 18:31:37 57° NE 18:31:37 57° NE
BREEZE-M DEB (TANK) 4.4 18:10:22 10° WSW 18:33:35 64° S 18:36:50 33° ESE
CZ-4B R/B 3.6 18:43:54 75° ESE 18:44:08 80° ENE 18:48:02 10° NNW
Lacrosse 5 rocket 2.3 18:41:38 10° WNW 18:44:48 30° N 18:44:56 30° N
PAYLOAD B 4.4 18:45:53 47° E 18:46:51 52° ENE 18:52:18 10° N
ATLAS 2AS CENTAUR R/B 4.1 18:42:22 10° WNW 18:48:05 27° N 18:51:31 19° NE
Cosmos 2263 Rocket 3.0 18:43:00 10° S 18:46:41 33° SE 18:46:41 33° SE
Terra 3.2 18:51:39 24° NNE 18:51:39 24° NNE 18:53:57 10° N
SJ-6B 3.6 18:46:44 10° S 18:50:01 43° W 18:53:20 10° NNW
Cosmos 2237 Rocket 3.5 18:45:42 10° NW 18:50:58 40° WSW 18:56:12 10° S
TSX-5 4.3 18:48:24 10° NNW 18:53:39 58° NE 18:53:39 58° NE
Okean O Rocket 4.0 19:01:58 12° N 19:01:58 12° N 19:02:26 10° N
Cosmos 44 Rocket 3.2 18:56:32 10° SW 19:01:30 88° NW 19:02:15 65° NE
USA 267 3.7 18:59:48 33° NE 19:02:35 54° N 19:08:54 10° W
ERS-1 Rocket 3.7 19:04:25 39° NNE 19:04:25 39° NNE 19:07:54 10° N
Meteor 1-31 Rocket 4.1 19:06:44 30° NNW 19:06:44 30° NNW 19:08:40 10° NNW
Cosmos 1816 Rocket 4.4 18:59:23 10° S 19:05:33 86° W 19:11:50 10° N
Cosmos 2034 Rocket 3.9 19:02:19 10° N 19:08:31 84° W 19:13:44 15° S
ADEOS 3.8 19:12:55 56° NNE 19:12:55 56° NNE 19:17:14 10° N
Cosmos 1544 Rocket 4.0 19:10:47 10° NNW 19:14:21 56° NW 19:14:21 56° NW
SL-16 R/B 2.2 19:10:43 10° NNW 19:16:24 79° WSW 19:17:18 63° S
Cosmos 1634 Rocket 3.9 19:10:35 10° N 19:16:55 68° ENE 19:17:04 68° E
Cosmos 2227 Rocket 2.1 19:11:41 10° SSW 19:17:20 82° WNW 19:18:49 52° NNE
ARIANE 6 FM1 Upper Stage 4.0 19:18:24 10° NW 19:20:45 34° NW 19:20:45 34° NW
Cosmos 1975 Rocket 4.3 19:18:43 10° SW 19:22:48 39° WNW 19:26:54 10° N
CZ-4 R/B 3.5 19:33:01 20° NNW 19:33:01 20° NNW 19:34:19 10° NNW
Gblst 52 Del rocket 4.4 19:23:23 10° W 19:30:45 86° N 19:31:10 79° ENE
CZ-4C R/B 3.6 19:29:05 10° W 19:33:24 30° NNW 19:35:03 26° N
CZ-4B R/B 3.6 19:40:18 56° NNW 19:40:18 56° NNW 19:44:30 10° NNW
SPOT 5 4.0 19:39:23 35° SW 19:40:35 41° W 19:45:23 10° NNW
Cosmos 2279 Rocket 4.5 19:34:38 10° N 19:39:08 48° NNE 19:39:08 48° NNE
MOS 1 4.5 19:43:59 70° WNW 19:43:59 70° WNW 19:49:16 10° NNW
Cosmos 2297 Rocket 4.1 19:58:14 10° W 20:02:52 25° NW 20:06:06 16° N
Cosmos 1943 4.2 19:59:48 10° NNW 20:03:25 41° NNW 20:03:25 41° NNW
Terra 4.3 20:30:15 17° NW 20:30:15 17° NW 20:31:32 10° NNW
Cosmos 2263 Rocket 4.3 20:26:46 10° WSW 20:28:28 19° WSW 20:28:28 19° WSW
ATLAS 2AS CENTAUR R/B 4.1 20:34:41 10° NW 20:38:56 30° N 20:38:56 30° N
Cosmos 2344 4.1 20:37:19 10° WSW 20:42:59 48° W 20:42:59 48° W
USA 267 4.3 20:47:08 41° NW 20:47:08 41° NW 20:51:27 10° WNW
Cosmos 2227 Rocket 4.5 20:57:57 10° W 21:00:43 20° WNW 21:00:43 20° WNW
